Date String (YYYY-MM-DD hh:mm:ss) UTC,Instrument flags,absolute air pressure of the measurement (hPa),sample flow rate (lpm),inlet stack bypass flow (lpm),air temperature of the measurement (°C),ambient temperature measured by the external sensor (°C),aerosol sample conditioner tube jacket temperature (°C),OPC LED temperature (°C),internal box temperature (°C),relative humidity of the measurement (%),span deviation,mass concentration of particles derived from Lorenz-Mie calculation of OPC scattering (μg/m³),mass concentration of particles derived from Lorenz-Mie calculation of OPC scattering (μg/m³),mass concentration of particles derived from Lorenz-Mie calculation of OPC scattering (μg/m³)
DateTimeUTC,F1_M11,P_M11,Q1_M11,Q2_M11,T1_M11,T2_M11,T3_M11,T4_M11,T5_M11,U1_M11,ZSPAN_M11,X2_M11,X0_M11,X1_M11
2023-10-21 04:00:00,SystemResetWarning,0831.6,5.00,000.00,028.4,027.3,000.0,036.8,030.2,9.9,0000.0,0002.26,0008.75,0000.90
2023-10-21 04:01:00,SystemResetWarning,0831.6,4.99,000.00,028.5,027.3,000.0,036.8,030.3,9.9,0000.0,0002.37,0008.69,0000.91
2023-10-21 04:02:00,SystemResetWarning,0831.6,4.99,000.00,028.5,027.3,000.0,036.8,030.2,9.9,0000.0,0002.37,0008.39,0000.90
2023-10-21 04:03:00,SystemResetWarning,0831.6,5.00,000.00,028.5,027.4,000.0,036.9,030.3,9.9,0000.0,0002.33,0008.24,0000.90
2023-10-21 04:04:00,SystemResetWarning,0831.6,5.00,000.00,028.5,027.4,000.0,036.9,030.3,9.9,0000.0,0002.26,0008.21,0000.90
2023-10-21 04:05:00,SystemResetWarning,0831.6,5.00,000.00,028.6,027.4,000.0,036.9,030.3,9.9,0000.0,0002.19,0008.29,0000.90
2023-10-21 04:06:00,SystemResetWarning,0831.5,5.00,000.00,028.6,027.4,000.0,036.9,030.3,9.9,0000.0,0002.13,0008.67,0000.89
2023-10-21 04:07:00,SystemResetWarning,0831.5,4.99,000.00,028.6,026.2,000.0,036.9,030.3,9.8,0000.0,0002.11,0008.48,0000.89
2023-10-21 04:08:00,SystemResetWarning,0831.5,5.00,000.00,028.5,024.5,000.0,036.8,030.1,9.9,0000.0,0002.11,0008.06,0000.90
2023-10-21 04:09:00,SystemResetWarning,0831.5,5.00,000.00,028.4,024.2,000.0,036.8,029.9,9.9,0000.0,0002.03,0007.79,0000.88
2023-10-21 04:10:00,SystemResetWarning,0831.5,5.01,000.00,028.3,024.5,000.0,036.8,029.7,9.9,0000.0,0001.97,0007.36,0000.86
2023-10-21 04:11:00,SystemResetWarning,0831.4,5.00,000.00,028.2,024.9,000.0,036.8,029.7,10.0,0000.0,0001.96,0007.38,0000.85
2023-10-21 04:12:00,SystemResetWarning,0831.4,5.00,000.00,028.2,025.2,000.0,036.8,029.7,10.0,0000.0,0001.95,0007.08,0000.84
2023-10-21 04:13:00,SystemResetWarning,0831.4,5.01,000.00,028.2,025.6,000.0,036.8,029.8,10.0,0000.0,0001.93,0007.56,0000.84
2023-10-21 04:14:00,SystemResetWarning,0831.4,4.99,000.00,028.2,025.9,000.0,036.8,029.8,10.0,0000.0,0001.95,0008.58,0000.85
2023-10-21 04:15:00,SystemResetWarning,0831.4,4.99,000.00,028.2,026.1,000.0,036.8,029.9,10.0,0000.0,0002.02,0008.65,0000.85
2023-10-21 04:16:00,SystemResetWarning,0831.4,5.00,000.00,028.2,026.3,000.0,036.7,029.9,10.0,0000.0,0002.08,0008.47,0000.85
2023-10-21 04:17:00,SystemResetWarning,0831.4,5.00,000.00,028.2,026.5,000.0,036.7,029.9,10.0,0000.0,0002.09,0007.82,0000.85
2023-10-21 04:18:00,SystemResetWarning,0831.3,5.00,000.00,028.2,026.6,000.0,036.7,029.9,10.0,0000.0,0002.09,0008.05,0000.85
2023-10-21 04:19:00,SystemResetWarning,0831.4,5.00,000.00,028.2,026.7,000.0,036.7,029.9,10.0,0000.0,0002.10,0008.25,0000.86
2023-10-21 04:20:00,SystemResetWarning,0831.3,5.00,000.00,028.3,026.8,000.0,036.7,030.0,10.0,0000.0,0002.08,0008.19,0000.87
2023-10-21 04:21:00,SystemResetWarning,0831.3,4.99,000.00,028.3,026.9,000.0,036.8,030.0,10.0,0000.0,0002.11,0008.17,0000.87
2023-10-21 04:22:00,SystemResetWarning,0831.3,5.00,000.00,028.3,027.0,000.0,036.8,030.0,10.0,0000.0,0002.08,0008.07,0000.88
2023-10-21 04:23:00,SystemResetWarning,0831.3,4.99,000.00,028.3,027.0,000.0,036.8,030.1,10.0,0000.0,0002.06,0007.96,0000.88
2023-10-21 04:24:00,SystemResetWarning,0831.4,5.00,000.00,028.4,027.1,000.0,036.8,030.1,9.9,0000.0,0002.09,0008.39,0000.89
2023-10-21 04:25:00,SystemResetWarning,0831.3,5.01,000.00,028.4,027.1,000.0,036.8,030.1,9.9,0000.0,0002.06,0007.58,0000.89
2023-10-21 04:26:00,SystemResetWarning,0831.3,5.01,000.00,028.4,027.2,000.0,036.8,030.2,9.9,0000.0,0002.04,0008.25,0000.89
2023-10-21 04:27:00,SystemResetWarning,0831.3,5.00,000.00,028.4,027.2,000.0,036.8,030.1,9.9,0000.0,0001.96,0008.37,0000.89
2023-10-21 04:28:00,SystemResetWarning,0831.3,5.00,000.00,028.5,027.3,000.0,036.8,030.2,9.9,0000.0,0001.92,0008.17,0000.90
2023-10-21 04:29:00,SystemResetWarning,0831.3,5.00,000.00,028.5,027.3,000.0,036.9,030.2,9.9,0000.0,0001.90,0008.49,0000.91
2023-10-21 04:30:00,SystemResetWarning,0831.3,5.00,000.00,028.5,027.3,000.0,036.9,030.2,9.9,0000.0,0001.90,0008.65,0000.90
2023-10-21 04:31:00,SystemResetWarning,0831.3,5.00,000.00,028.5,027.3,000.0,036.9,030.2,9.9,0000.0,0001.94,0008.84,0000.89
2023-10-21 04:32:00,SystemResetWarning,0831.3,5.00,000.00,028.6,027.4,000.0,036.9,030.3,9.9,0000.0,0001.93,0009.23,0000.90
2023-10-21 04:33:00,SystemResetWarning,0831.3,5.00,000.00,028.6,027.4,000.0,036.9,030.3,9.9,0000.0,0001.92,0009.16,0000.89
2023-10-21 04:34:00,SystemResetWarning,0831.3,5.00,000.00,028.6,027.4,000.0,037.0,030.3,9.9,0000.0,0001.88,0009.46,0000.90
2023-10-21 04:35:00,SystemResetWarning,0831.3,5.00,000.00,028.6,027.5,000.0,037.0,030.3,9.9,0000.0,0001.85,0009.66,0000.89
2023-10-21 04:36:00,SystemResetWarning,0831.3,5.00,000.00,028.7,027.5,000.0,037.0,030.3,9.9,0000.0,0001.86,0010.30,0000.91
2023-10-21 04:37:00,SystemResetWarning,0831.3,5.00,000.00,028.7,027.5,000.0,037.0,030.3,9.9,0000.0,0001.83,0009.70,0000.90
2023-10-21 04:38:00,SystemResetWarning,0831.3,5.00,000.00,028.7,027.5,000.0,037.0,030.4,9.9,0000.0,0001.86,0009.52,0000.90
2023-10-21 04:39:00,SystemResetWarning,0831.3,4.99,000.00,028.7,027.2,000.0,037.0,030.4,9.9,0000.0,0001.88,0010.06,0000.91
2023-10-21 04:40:00,SystemResetWarning,0831.3,4.99,000.00,028.7,025.2,000.0,037.0,030.2,9.9,0000.0,0001.93,0011.27,0000.90
2023-10-21 04:41:00,SystemResetWarning,0831.2,5.01,000.00,028.6,024.2,000.0,036.9,030.1,9.9,0000.0,0001.95,0010.69,0000.91
2023-10-21 04:42:00,SystemResetWarning,0831.2,5.01,000.00,028.5,024.2,000.0,036.9,029.8,9.9,0000.0,0001.91,0010.53,0000.92
2023-10-21 04:43:00,SystemResetWarning,0831.2,4.99,000.00,028.3,024.6,000.0,036.9,029.7,10.0,0000.0,0001.95,0010.73,0000.92
2023-10-21 04:44:00,SystemResetWarning,0831.2,5.00,000.00,028.3,025.0,000.0,036.9,029.8,10.0,0000.0,0001.96,0011.26,0000.95
2023-10-21 04:45:00,SystemResetWarning,0831.2,5.00,000.00,028.2,025.3,000.0,036.9,029.8,10.1,0000.0,0002.02,0010.95,0000.95
2023-10-21 04:46:00,SystemResetWarning,0831.1,5.01,000.00,028.2,025.7,000.0,036.9,029.9,10.1,0000.0,0001.96,0010.14,0000.95
2023-10-21 04:47:00,SystemResetWarning,0831.1,5.00,000.00,028.2,025.9,000.0,036.8,029.9,10.1,0000.0,0001.96,0009.94,0000.94
2023-10-21 04:48:00,SystemResetWarning,0831.1,4.99,000.00,028.2,026.2,000.0,036.8,029.9,10.1,0000.0,0001.94,0009.70,0000.94
2023-10-21 04:49:00,SystemResetWarning,0831.1,4.99,000.00,028.2,026.3,000.0,036.8,029.9,10.1,0000.0,0001.93,0009.55,0000.95
2023-10-21 04:50:00,SystemResetWarning,0831.2,5.00,000.00,028.2,026.5,000.0,036.8,030.0,10.1,0000.0,0001.94,0009.40,0000.94
2023-10-21 04:51:00,SystemResetWarning,0831.1,5.00,000.00,028.2,026.6,000.0,036.8,030.0,10.1,0000.0,0001.89,0007.64,0000.93
2023-10-21 04:52:00,SystemResetWarning,0831.1,5.01,000.00,028.3,026.7,000.0,036.8,030.0,10.1,0000.0,0001.91,0007.66,0000.93
2023-10-21 04:53:00,SystemResetWarning,0831.1,5.00,000.00,028.3,026.8,000.0,036.8,030.0,10.1,0000.0,0001.95,0008.23,0000.92
2023-10-21 04:54:00,SystemResetWarning,0831.1,5.00,000.00,028.3,026.9,000.0,036.8,030.0,10.1,0000.0,0001.88,0007.87,0000.92
2023-10-21 04:55:00,SystemResetWarning,0831.2,5.00,000.00,028.3,026.9,000.0,036.8,030.0,10.0,0000.0,0001.83,0007.67,0000.90
2023-10-21 04:56:00,SystemResetWarning,0831.2,4.99,000.00,028.4,027.0,000.0,036.8,030.0,10.0,0000.0,0001.83,0008.36,0000.90
2023-10-21 04:57:00,SystemResetWarning,0831.2,4.99,000.00,028.4,027.1,000.0,036.8,030.1,10.1,0000.0,0001.83,0008.59,0000.91
2023-10-21 04:58:00,SystemResetWarning,0831.1,5.00,000.00,028.4,027.1,000.0,036.8,030.1,10.1,0000.0,0001.86,0008.62,0000.90
2023-10-21 04:59:00,SystemResetWarning,0831.2,5.00,000.00,028.4,027.1,000.0,036.8,030.1,10.0,0000.0,0001.89,0009.29,0000.89
